Home   Weather   Sioux Falls   Past weeks

Flag for USA Past Weather in Sioux Falls, South Dakota, USA — Yesterday and Last 2 Weeks

Now
62 °F

Passing clouds.


Feels Like: 62 °F
Forecast: 45 / 63 °F
Wind: 12 mph from Northeast

Location: Foss Field

Current Time: Sep 28, 2016 at 1:51:13 PM

Latest Report: Sep 28, 2016 at 12:56 PM


Visibility: 10 mi

Pressure: 30.26 "Hg

Humidity: 56%

Dew Point: 46 °F

Location of Sioux FallsLocation

Past Weather in Sioux Falls — Graph

°F

Sioux Falls Temperature Yesterday

Maximum temperature yesterday: 75 °F (at 3:56 PM)
Minimum temperature yesterday: 45 °F (at 6:56 AM)
Average temperature yesterday: 59 °F

High & Low Weather Summary for the Past Weeks

 TemperatureHumidityPressure
High87 °F (Sep 21, 2:56 PM)100% (Sep 15, 9:56 AM)30.34 "Hg (Sep 15, 9:56 AM)
Low43 °F (Sep 14, 4:56 AM)27% (Sep 26, 4:56 PM)29.71 "Hg (Sep 18, 4:56 PM)
Average65 °F73%29.98 "Hg
* Reported Sep 13 11:56 AM — Sep 28 11:56 AM, Sioux Falls, Weather by CustomWeather, © 2016

Note: Actual official high and low records may vary slightly from our data, if they occured in-between our weather recording intervals... More about our weather records

Advertising

Sioux Falls Weather History for the Previous 24 Hours

Scroll right to see more
 ConditionsComfort  
Time TempWeatherWind HumidityBarometerVisibility
11:56 AM
Wed, Sep 28
58 °FPassing clouds.8 mph65%30.25 "Hg10 mi
10:56 AM55 °FPassing clouds.9 mph69%30.24 "Hg10 mi
9:56 AM51 °FPassing clouds.15 mph77%30.22 "Hg10 mi
8:56 AM50 °FPassing clouds.12 mph80%30.19 "Hg10 mi
7:56 AM46 °FPassing clouds.9 mph89%30.16 "Hg10 mi
6:56 AM44 °FClear.No wind93%30.13 "Hg10 mi
5:56 AM47 °FPassing clouds.8 mph86%30.09 "Hg10 mi
4:56 AM47 °FPassing clouds.8 mph83%30.07 "Hg10 mi
3:56 AM47 °FClear.9 mph83%30.03 "Hg10 mi
2:56 AM47 °FClear.8 mph80%30.02 "Hg10 mi
1:56 AM48 °FClear.8 mph71%29.99 "Hg10 mi
12:56 AM48 °FClear.8 mph68%29.98 "Hg10 mi
11:56 PM
Tue, Sep 27
52 °FClear.8 mph55%29.95 "Hg10 mi
10:56 PM54 °FClear.9 mph53%29.92 "Hg10 mi
9:56 PM55 °FPassing clouds.8 mph62%29.91 "Hg10 mi
8:56 PM57 °FClear.7 mph62%29.89 "Hg10 mi
7:56 PM62 °FPassing clouds.8 mph52%29.88 "Hg10 mi
6:56 PM67 °FPassing clouds.9 mph45%29.86 "Hg10 mi
5:56 PM74 °FPassing clouds.13 mph33%29.85 "Hg10 mi
4:56 PM75 °FPassing clouds.15 mph33%29.86 "Hg10 mi
3:56 PM75 °FPassing clouds.18 mph32%29.86 "Hg10 mi
2:56 PM73 °FPassing clouds.17 mph34%29.88 "Hg10 mi
1:56 PM73 °FPassing clouds.20 mph33%29.90 "Hg10 mi
Weather by CustomWeather, © 2016

See weather overviewHow to use our weather pages